{"data":{"norad_id":37818,"intl_designator":"2011-052A","name":"TACSAT 4","alt_names":[],"object_type":"PAYLOAD","status":"ACTIVE","operator":null,"country":"US","launch_date":"2011-09-27","launch_site_code":"KODAK","launch_vehicle":null,"mission":null,"orbit_class":"UNKNOWN","rcs_meters":6.3594,"size_class":null,"mass_kg":null,"dimensions":null,"purposes":[],"wikipedia_slug":null,"has_3d_model":false,"image_url":null,"decayed_at":null,"tle_current":{"epoch":"2026-05-24T08:23:24.785088Z","epoch_age_seconds":131001,"freshness":"FRESH","line1":"1 37818U 11052A   26144.34959242  .00001775  00000+0  69326-3 0  9999","line2":"2 37818  62.8259 136.1166 4624654 283.0324  30.7832  6.15444229323321","mean_motion":6.15444229,"eccentricity":0.4624654,"inclination_deg":62.8259,"raan_deg":136.1166,"arg_perigee_deg":283.0324,"mean_anomaly_deg":30.7832,"bstar":0.00069326,"rev_number":32332,"period_min":233.97733411844,"perigee_km":382.93866607548,"apogee_km":12016.658848337,"semimajor_km":12577.935757206,"source":"CELESTRAK","updated_at":"2026-05-25T13:37:55.266882Z"}}}